When you browse on this site, cookies collect data to enhance your experience and personalize the content and advertising you see.
Visit our Privacy Policy to learn more. By continuing to use the site, you agree to this use of cookies and data.

Tiempo cada hora Newcastle

Hoy, 6 Agosto, Jueves

Tiempo Temperatura Precipitaciones Viento Presión Humedad
00:00 +5°C° 0 mm 5 mps 761 mmHg 73%
01:00 +3°C° 0 mm 5 mps 762 mmHg 75%
02:00 +4°C° 0 mm 4 mps 762 mmHg 78%
03:00 +3°C° 0 mm 4 mps 762 mmHg 80%
04:00 +3°C° 0 mm 4 mps 761 mmHg 82%
05:00 +3°C° 0 mm 3 mps 762 mmHg 82%
06:00 +3°C° 0 mm 3 mps 763 mmHg 82%
07:00 +2°C° 0 mm 3 mps 763 mmHg 82%
08:00 +5°C° 0 mm 3 mps 763 mmHg 72%
09:00 +8°C° 0 mm 3 mps 763 mmHg 63%
10:00 +10°C° 0 mm 2 mps 763 mmHg 53%
11:00 +13°C° 0 mm 2 mps 763 mmHg 49%
12:00 +14°C° 0 mm 2 mps 763 mmHg 44%
13:00 +16°C° 0 mm 2 mps 762 mmHg 39%
14:00 +15°C° 0 mm 2 mps 762 mmHg 43%
15:00 +14°C° 0 mm 2 mps 762 mmHg 47%
16:00 +14°C° 0 mm 2 mps 762 mmHg 51%
17:00 +12°C° 0 mm 2 mps 763 mmHg 57%
18:00 +9°C° 0 mm 2 mps 764 mmHg 63%
19:00 +7°C° 0 mm 2 mps 765 mmHg 69%
20:00 +7°C° 0 mm 2 mps 765 mmHg 71%
21:00 +6°C° 0 mm 2 mps 765 mmHg 73%
22:00 +6°C° 0 mm 2 mps 766 mmHg 75%
23:00 +6°C° 0 mm 2 mps 766 mmHg 75%

Mañana, 7 Agosto, Viernes

Tiempo Temperatura Precipitaciones Viento Presión Humedad
00:00 +6°C° 0 mm 2 mps 766 mmHg 76%
01:00 +6°C° 0 mm 2 mps 766 mmHg 77%
02:00 +7°C° 0 mm 1 mps 765 mmHg 79%
03:00 +7°C° 0 mm 1 mps 765 mmHg 80%
04:00 +7°C° 0 mm 1 mps 765 mmHg 82%
05:00 +7°C° 0 mm 1 mps 765 mmHg 81%
06:00 +8°C° 0 mm 1 mps 765 mmHg 80%
07:00 +8°C° 0 mm 1 mps 765 mmHg 79%
08:00 +10°C° 0 mm 1 mps 765 mmHg 74%
09:00 +12°C° 0 mm 1 mps 765 mmHg 70%
10:00 +14°C° 0 mm 1 mps 765 mmHg 66%
11:00 +15°C° 0 mm 2 mps 764 mmHg 64%
12:00 +16°C° 0 mm 3 mps 764 mmHg 63%
13:00 +15°C° 0 mm 4 mps 763 mmHg 61%
14:00 +15°C° 0.2 mm 4 mps 763 mmHg 69%
15:00 +14°C° 0.2 mm 4 mps 762 mmHg 77%
16:00 +13°C° 0.2 mm 4 mps 762 mmHg 85%
17:00 +13°C° 1 mm 5 mps 762 mmHg 88%
18:00 +11°C° 1 mm 6 mps 762 mmHg 92%
19:00 +11°C° 1 mm 7 mps 762 mmHg 95%
20:00 +11°C° 0.1 mm 7 mps 762 mmHg 94%
21:00 +11°C° 0.1 mm 7 mps 762 mmHg 94%
22:00 +12°C° 0.1 mm 7 mps 762 mmHg 93%
23:00 +12°C° 0 mm 7 mps 761 mmHg 93%

Pasado mañana, 8 Agosto, Sábado

Tiempo Temperatura Precipitaciones Viento Presión Humedad
00:00 +12°C° 0 mm 7 mps 761 mmHg 93%
01:00 +12°C° 0 mm 7 mps 761 mmHg 92%
02:00 +13°C° 0.1 mm 6 mps 760 mmHg 93%
03:00 +11°C° 0.1 mm 6 mps 760 mmHg 95%
04:00 +12°C° 0.1 mm 5 mps 759 mmHg 96%
05:00 +11°C° 0.2 mm 4 mps 759 mmHg 96%
06:00 +10°C° 0.2 mm 4 mps 759 mmHg 97%
07:00 +10°C° 0.2 mm 3 mps 759 mmHg 97%
08:00 +11°C° 0 mm 3 mps 759 mmHg 91%
09:00 +13°C° 0 mm 3 mps 759 mmHg 85%
10:00 +16°C° 0 mm 2 mps 759 mmHg 79%
11:00 +17°C° 0 mm 2 mps 758 mmHg 71%
12:00 +19°C° 0 mm 2 mps 757 mmHg 63%
13:00 +20°C° 0 mm 2 mps 757 mmHg 55%
14:00 +20°C° 0.1 mm 2 mps 756 mmHg 57%
15:00 +19°C° 0.1 mm 3 mps 756 mmHg 60%
16:00 +19°C° 0.1 mm 3 mps 756 mmHg 63%
17:00 +17°C° 0 mm 4 mps 757 mmHg 69%
18:00 +14°C° 0 mm 4 mps 757 mmHg 75%
19:00 +12°C° 0 mm 4 mps 758 mmHg 81%
20:00 +12°C° 0 mm 5 mps 758 mmHg 79%
21:00 +12°C° 0 mm 5 mps 758 mmHg 77%
22:00 +10°C° 0 mm 6 mps 758 mmHg 75%
23:00 +9°C° 0 mm 6 mps 758 mmHg 77%

9 Agosto, Domingo

Tiempo Temperatura Precipitaciones Viento Presión Humedad
00:00 +9°C° 0 mm 6 mps 758 mmHg 78%
01:00 +8°C° 0 mm 5 mps 757 mmHg 80%
02:00 +8°C° 0 mm 6 mps 757 mmHg 80%
03:00 +8°C° 0 mm 6 mps 757 mmHg 80%
04:00 +8°C° 0 mm 6 mps 757 mmHg 80%
05:00 +8°C° 0 mm 6 mps 757 mmHg 79%
06:00 +8°C° 0 mm 6 mps 757 mmHg 78%
07:00 +8°C° 0 mm 5 mps 757 mmHg 77%
08:00 +9°C° 0 mm 5 mps 757 mmHg 74%
09:00 +9°C° 0 mm 5 mps 757 mmHg 71%
10:00 +10°C° 0 mm 5 mps 757 mmHg 68%
11:00 +12°C° 0 mm 5 mps 756 mmHg 65%
12:00 +14°C° 0 mm 5 mps 756 mmHg 61%
13:00 +15°C° 0 mm 5 mps 755 mmHg 58%
14:00 +15°C° 0 mm 5 mps 755 mmHg 57%
15:00 +15°C° 0 mm 5 mps 754 mmHg 57%
16:00 +15°C° 0 mm 5 mps 754 mmHg 57%
17:00 +14°C° 0.8 mm 6 mps 754 mmHg 67%
18:00 +11°C° 0.8 mm 6 mps 755 mmHg 77%
19:00 +10°C° 0.8 mm 7 mps 755 mmHg 88%
20:00 +10°C° 3.5 mm 7 mps 755 mmHg 90%
21:00 +9°C° 3.5 mm 7 mps 755 mmHg 92%
22:00 +9°C° 3.5 mm 7 mps 756 mmHg 94%
23:00 +10°C° 3.6 mm 8 mps 756 mmHg 94%

10 Agosto, Lunes

Tiempo Temperatura Precipitaciones Viento Presión Humedad
00:00 +11°C° 3.6 mm 9 mps 756 mmHg 94%
01:00 +12°C° 3.6 mm 10 mps 756 mmHg 93%
02:00 +12°C° 1.3 mm 10 mps 756 mmHg 92%
03:00 +12°C° 1.3 mm 10 mps 756 mmHg 90%
04:00 +12°C° 1.3 mm 10 mps 757 mmHg 89%
05:00 +12°C° 0.7 mm 10 mps 758 mmHg 88%
06:00 +12°C° 0.7 mm 10 mps 759 mmHg 88%
07:00 +12°C° 0.7 mm 11 mps 760 mmHg 87%
08:00 +12°C° 0.2 mm 10 mps 761 mmHg 84%
09:00 +12°C° 0.2 mm 9 mps 762 mmHg 80%
10:00 +13°C° 0.2 mm 9 mps 763 mmHg 77%
11:00 +13°C° 0.1 mm 9 mps 763 mmHg 72%
12:00 +15°C° 0.1 mm 8 mps 763 mmHg 67%
13:00 +16°C° 0.1 mm 8 mps 763 mmHg 62%
14:00 +15°C° 0.1 mm 8 mps 763 mmHg 65%
15:00 +15°C° 0.1 mm 7 mps 764 mmHg 68%
16:00 +14°C° 0.1 mm 6 mps 764 mmHg 71%
17:00 +13°C° 0.1 mm 6 mps 765 mmHg 74%
18:00 +13°C° 0.1 mm 5 mps 765 mmHg 77%
19:00 +12°C° 0.1 mm 5 mps 766 mmHg 80%
20:00 +12°C° 0.1 mm 4 mps 766 mmHg 83%
21:00 +11°C° 0.1 mm 4 mps 766 mmHg 86%
22:00 +11°C° 0.1 mm 4 mps 767 mmHg 89%
23:00 +10°C° 0.1 mm 4 mps 767 mmHg 90%

11 Agosto, Martes

Tiempo Temperatura Precipitaciones Viento Presión Humedad
00:00 +10°C° 0.1 mm 3 mps 766 mmHg 91%
01:00 +10°C° 0.1 mm 3 mps 766 mmHg 92%
02:00 +10°C° 0.1 mm 3 mps 766 mmHg 92%
03:00 +10°C° 0.1 mm 3 mps 766 mmHg 92%
04:00 +10°C° 0.1 mm 3 mps 766 mmHg 92%
05:00 +10°C° 0 mm 2 mps 766 mmHg 92%
06:00 +10°C° 0 mm 2 mps 766 mmHg 91%
07:00 +10°C° 0 mm 2 mps 767 mmHg 90%
08:00 +12°C° 0 mm 2 mps 767 mmHg 88%
09:00 +13°C° 0 mm 2 mps 767 mmHg 87%
10:00 +13°C° 0 mm 1 mps 767 mmHg 85%
11:00 +14°C° 0.1 mm 1 mps 766 mmHg 82%
12:00 +15°C° 0.1 mm 1 mps 766 mmHg 79%
13:00 +16°C° 0.1 mm 1 mps 765 mmHg 76%
14:00 +16°C° 0 mm 1 mps 765 mmHg 74%
15:00 +18°C° 0 mm 1 mps 765 mmHg 71%
16:00 +18°C° 0 mm 1 mps 764 mmHg 69%
17:00 +16°C° 0 mm 2 mps 765 mmHg 76%
18:00 +14°C° 0 mm 2 mps 765 mmHg 83%
19:00 +11°C° 0 mm 3 mps 765 mmHg 91%
20:00 +11°C° 0 mm 3 mps 765 mmHg 89%
21:00 +10°C° 0 mm 3 mps 766 mmHg 88%
22:00 +10°C° 0 mm 3 mps 766 mmHg 87%
23:00 +10°C° 0 mm 3 mps 765 mmHg 88%
Mostrar más